Regional Weather Roundup
Issued by NWS

Home | Current Version | Previous Version | Graphics & Text | Print | Product List | Glossary On
Versions: 1 2 3 4 5 6 7 8 9 10 11 12 13 14 15 16 17 18 19 20 21 22 23 24 25 26 27 28 29 30 31 32 33 34 35 36 37 38 39 40 41 42 43 44 45 46 47 48 49 50
000
ASUS43 KTOP 201008
RWRKS

WEATHER ROUNDUP FOR KANSAS
NATIONAL WEATHER SERVICE GOODLAND KS
400 AM CST SAT DEC 20 2014

NOTE:  "FAIR" INDICATES FEW OR NO CLOUDS BELOW 12,000 FEET WITH NO
SIGNIFICANT WEATHER AND/OR OBSTRUCTIONS TO VISIBILITY.

KSZ001>006-013>018-027>032-041>047-201100-
NORTHWEST KANSAS

CITY           SKY/WX    TMP DP  RH WIND       PRES   REMARKS
GOODLAND       PTCLDY    29  26  89 W9        30.03S
HAYS           CLEAR     27  19  74 S3        30.07F
HILL CITY      PTCLDY    29  26  89 W5        30.05S
RUSSELL        CLEAR     30  29  96 SW9       30.07S FOG
$$

KSZ061>065-074>080-084>089-201100-
SOUTHWEST KANSAS

CITY           SKY/WX    TMP DP  RH WIND       PRES   REMARKS
DODGE CITY     PTCLDY    32  29  88 SW9       30.09S
ELKHART          N/A    N/A N/A N/A MISG        N/A
GARDEN CITY    MOCLDY    26  25  96 SW5       30.07R FOG
GREAT BEND     FAIR      30  27  86 S7        30.10S
LIBERAL        CLEAR     30  27  86 SW10      30.11S WCI  21
PRATT          CLEAR     32  32 100 S7        30.12F FOG
$$

KSZ066>073-081>083-090>101-201100-
SOUTHEAST KANSAS

CITY           SKY/WX    TMP DP  RH WIND       PRES   REMARKS
CHANUTE        CLOUDY    35  34  96 S5        30.21F FOG
COFFEYVILLE    CLOUDY    36  35  96 SE5       30.22S FOG
HUTCHINSON     CLEAR     32  30  92 S7        30.13S FOG
MEDICINE LODGE   N/A     35  35 100 S3        30.14S
NEWTON         CLEAR     34  28  80 S10       30.14F WCI  26
PARSONS        CLOUDY    36  35  96 CALM      30.22F FOG
WICHITA INTL   PTCLDY    34  31  88 S10       30.15F WCI  26
WICHITA JABRA  CLEAR     32  30  92 S6        30.15S
WICHITA MCCONL CLEAR     31  29  95 S7        30.16S
WINFIELD       CLOUDY    36  34  92 S5        30.19S
$$

KSZ007>012-019>026-033>040-048>060-102>105-201100-
NORTHEAST KANSAS

CITY           SKY/WX    TMP DP  RH WIND       PRES   REMARKS
CONCORDIA      CLEAR     30  30 100 SW14      30.07F WCI  19
EMPORIA        CLOUDY    33  31  92 S8        30.17R
LAWRENCE       CLOUDY    33  29  85 SE6       30.19F
MANHATTAN      CLEAR     30  29  96 SW3       30.14S
MARYSVILLE     CLOUDY    32  30  93 S12       30.09S FOG     WCI  23
OLATHE IND     CLOUDY    32  30  92 SW5       30.19F
OLATHE EXE     CLOUDY    33  32  96 SW5       30.18F
SALINA         CLEAR     30  28  92 S5        30.12S FOG
TOPEKA BILLARD CLOUDY    35  30  82 SE6       30.18F
TOPEKA FORBES  CLOUDY    35  30  82 S9        30.16F
$$


USA.gov is the U.S. government's official web portal to all federal, state and local government web resources and services.